SCP
0 0 0 0 0 0 0 0 0 0 0 0 -0 -0 -0 -0 -0 -0 -0 0 0 0 -0 -0 -0 -0 -0 -0 0 -0 -0 -0 -0 0 0 0 -0 0 0 0 -0 0 0 0
0 0 0 0 0 0 0 0 0 0 0 0 0 -0 -0 -0 -0 -0 -0 -0 -0 0 -0 -0 -0 -0 -0 -0 -0 -0 -0 -0 -0 0 0 0 0 0 0 0 0 -0 -0 -0
0 0 0 0 0 0 0 0 0 0 0 0 0 0 0 -0 0 -0 -0 -0 -0 -0 -0 -0 -0 -0 -0 -0 -0 -0 -0 -0 -0 0 0 0 0 0 0 0 0 0 0 0
0 0 0 0 0 0 0 0 0 0 0 0 0 0 0 0 -0 0 -0 -0 -0 -0 -0 -0 -0 -0 -0 -0 -0 -0 -0 -0 -0 -0 0 0 0 0 0 0 0 0 0 0
0 0 0 0 0 0 -0 0 0 0 0 0 0 0 -0 0 -0 0 -0 -0 -0 -0 -0 -0 -0 -0 -0 -0 -0 -0 -0 -0 -0 -0 -0 0 0 0 0 0 0 0 0 0
0 0 0 0 0 0 0 0 0 0 0 0 0 0 -0 -0 -0 -0 0 -0 -0 -0 -0 -0 -0 -0 -0 -0 -0 -0 -0 -0 0 0 0 0 0 0 0 0 0 0 0 0
0 0 0 0 0 0 0 0 0 0 0 0 0 0 -0 -0 -0 -0 -0 -0 -0 -0 -0 -0 -0 -0 -0 -0 -0 -0 -0 -0 -0 -0 -0 -0 -0 0 0 0 0 0 0 0
0 0 0 0 -0 -0 0 0 0 0 0 0 0 0 0 -0 -0 -0 0 -0 0 0 -0 -0 -0 -0 -0 -0 -0 -0 -0 -0 -0 -0 -0 -0 -0 0 0 0 0 0 0 0
0 0 0 0 0 0 0 0 0 0 0 0 0 -0 0 0 0 -0 0 0 0 0 0 0 0 0 0 0 -0 -0 -0 0 -0 -0 -0 -0 -0 0 0 0 0 0 0 0
0 0 0 0 0 0 0 0 0 0 0 0 0 0 0 -0 -0 0 0 0 0 0 0 0 0 0 0 0 0 -0 -0 -0 0 0 -0 -0 0 0 0 0 0 0 0 0
0 0 0 0 0 0 0 0 0 0 0 0 0 0 0 0 0 0 -0 -0 0 0 0 0 0 0 0 0 0 0 0 0 0 0 0 -0 0 0 0 0 0 1 0 0
0 0 0 0 0 0 0 0 0 -0 0 0 0 -0 0 -0 -0 0 0 0 0 -0 -0 -0 0 0 0 0 0 0 0 0 0 0 0 0 0 0 0 0 0 0 0 0
0 0 0 0 0 0 0 0 0 0 0 0 0 0 0 0 0 -0 0 0 -0 -0 0 -0 -0 0 0 0 0 0 0 0 1 1 0 -0 -0 0 0 0 0 0 0 0
0 0 0 -0 0 0 0 0 0 0 0 0 0 0 0 0 0 0 0 0 -0 -0 -0 0 0 0 0 0 0 0 0 1 1 1 0 -0 -0 -0 0 0 0 0 0 0
0 0 0 0 0 0 0 0 0 0 0 0 0 0 0 0 0 0 0 0 -0 -0 -0 -0 -0 0 0 -0 0 0 1 1 1 0 0 -0 -0 0 -0 -0 0 0 0 0
0 0 0 0 0 0 0 0 0 0 0 0 0 0 0 0 0 0 0 0 -0 -0 0 -0 -0 0 0 0 0 1 1 1 1 1 0 -0 -0 -0 -0 -0 0 0 0 0
0 0 0 0 0 0 0 0 0 0 0 0 0 0 0 0 1 0 0 0 0 -0 -0 0 -0 -0 0 0 1 1 2 1 1 2 0 -0 -0 -0 -0 -0 0 0 0 0
0 0 0 0 0 0 0 0 0 0 0 0 0 0 0 0 0 0 0 0 0 0 0 0 1 1 0 0 1 1 1 1 1 1 -0 0 0 0 0 0 0 0 0 0
0 0 0 0 0 0 0 0 0 0 0 0 0 0 0 0 0 0 0 0 0 0 0 0 0 1 1 1 1 1 1 1 1 1 1 1 0 0 0 0 0 0 0 0
0 0 0 0 0 0 0 0 0 0 0 0 0 0 0 0 0 0 0 0 0 0 -0 -0 -0 0 1 1 1 2 1 1 1 1 1 1 1 0 0 0 0 0 0 0
0 0 0 0 0 0 0 0 0 0 0 0 0 0 0 0 0 0 0 0 0 0 0 0 -0 1 1 1 1 2 2 2 2 2 1 1 1 0 0 0 0 0 0 0
0 0 0 0 0 0 0 0 0 0 0 0 0 0 0 0 0 0 0 0 0 0 0 0 0 0 1 2 2 2 2 3 3 2 2 1 0 0 0 0 0 0 0 0
0 0 0 0 0 0 0 0 0 0 0 0 0 0 0 0 0 0 0 0 0 0 1 0 1 0 1 2 2 3 3 3 4 1 1 0 0 0 0 0 0 0 0 0
0 0 0 0 0 0 0 0 0 0 0 0 0 0 0 0 0 0 0 0 0 0 0 1 1 1 1 1 1 3 3 3 2 1 0 0 0 0 0 0 0 0 0 0
0 0 0 0 0 0 0 0 0 0 0 0 0 0 0 0 0 0 0 0 0 0 0 0 1 1 1 0 1 1 2 2 2 1 0 0 0 0 0 0 0 0 0 0
0 0 0 0 0 0 0 0 0 0 0 0 0 0 0 0 0 0 0 0 0 0 0 0 1 1 1 0 1 1 1 1 1 0 0 0 0 0 0 0 0 0 0 0
Wind_Speed_500mb
4 9 10 15 11 8 7 8 7 10 5 2 13 12 22 49 45 42 50 54 69 77 74 69 65 63 67 63 59 53 54 49 49 41 39 31 30 31 31 27 19 15 16 17
11 8 16 10 14 10 4 3 8 16 8 5 9 11 8 24 48 64 62 62 74 76 74 71 74 67 65 69 65 57 53 55 53 45 37 31 22 32 38 29 21 20 19 11
12 9 11 11 9 8 5 7 7 12 13 6 9 16 7 8 19 38 50 69 79 82 80 76 72 70 63 70 66 62 51 53 54 44 39 37 30 28 29 30 20 18 13 13
8 4 12 7 5 11 5 13 12 6 5 7 5 10 11 7 17 9 39 64 81 85 82 80 78 73 68 65 68 63 57 49 53 49 44 41 34 28 27 26 19 20 12 13
14 12 9 8 12 11 18 11 14 8 8 5 6 6 17 8 18 11 34 69 83 84 84 81 81 72 68 61 69 63 57 54 52 51 46 41 37 31 26 24 24 17 13 10
11 4 10 16 8 16 5 10 11 10 7 3 9 10 14 11 13 16 11 53 70 75 74 76 76 70 69 68 67 68 59 52 51 50 49 45 40 31 26 25 21 21 13 11
10 6 5 7 8 4 12 14 6 6 6 12 3 5 20 10 18 23 19 50 54 50 61 70 75 77 75 76 72 72 63 56 52 46 49 44 42 34 26 25 24 24 14 15
10 11 12 11 15 14 8 17 12 11 8 11 6 10 13 14 33 22 27 32 42 46 49 59 80 79 77 78 80 72 68 59 55 50 48 48 42 37 28 23 19 20 14 16
9 10 8 4 5 15 8 6 9 15 7 5 6 15 15 9 8 9 12 31 45 49 52 59 65 74 73 76 79 80 73 71 53 53 49 50 46 37 28 23 17 20 21 19
11 3 3 4 9 12 11 12 7 5 6 4 10 10 10 10 12 15 17 28 36 33 26 37 50 62 68 75 79 78 77 67 60 53 52 47 49 40 33 25 18 13 24 23
13 7 10 5 6 15 3 1 13 11 8 11 2 12 13 14 16 20 26 38 33 22 23 28 29 36 50 64 74 76 74 72 74 62 58 49 46 50 35 26 30 33 27 21
9 9 3 6 5 3 3 10 12 11 8 2 6 12 13 16 13 24 39 33 39 33 28 26 29 11 43 55 67 68 65 61 65 64 55 54 50 50 31 30 47 27 24 17
14 0 5 15 12 5 3 4 11 12 8 10 10 11 9 20 19 17 23 30 24 20 12 15 34 42 35 49 58 60 56 51 55 48 39 67 62 60 37 25 31 36 33 16
15 7 11 12 11 2 7 4 8 9 8 11 11 12 16 23 18 31 43 44 32 23 17 21 25 32 41 47 46 51 50 39 47 30 21 55 70 54 41 23 27 38 43 19
7 8 1 2 6 4 1 7 14 7 9 7 6 11 11 14 15 24 29 43 52 53 38 28 12 18 22 33 40 44 43 42 46 46 23 75 68 56 45 36 10 30 33 32
6 3 3 7 13 6 11 11 14 9 6 8 7 4 4 12 13 30 50 62 65 66 66 54 35 38 34 30 34 33 39 40 39 48 43 63 81 65 57 46 26 32 31 26
7 10 7 4 8 8 8 4 3 3 3 2 3 4 7 7 10 20 45 52 53 56 57 55 50 51 31 35 42 46 38 28 34 50 63 73 81 67 56 47 39 33 37 30
9 8 5 5 5 3 11 8 7 5 2 6 5 8 8 11 10 18 18 38 40 45 53 54 50 54 58 36 32 33 38 32 35 46 61 66 59 50 54 49 41 36 41 37
6 10 7 8 5 8 10 8 11 10 10 12 8 5 7 10 5 6 30 34 36 32 37 42 52 55 58 52 29 28 32 35 40 49 57 54 50 51 58 54 47 44 47 44
11 12 9 5 8 13 15 9 14 9 5 19 23 13 5 2 4 8 25 27 33 33 41 48 49 43 53 52 45 26 29 35 46 54 61 62 55 53 63 60 58 54 53 48
6 6 9 5 7 12 12 9 17 9 15 23 32 14 8 2 4 16 20 29 34 37 36 37 38 23 40 47 48 38 34 44 47 54 63 65 60 61 68 66 64 59 58 53
9 10 6 5 4 6 16 12 13 10 11 11 12 9 9 14 16 18 21 23 33 40 32 35 25 28 36 41 42 47 39 36 48 58 66 67 62 66 62 73 64 64 61 57
2 8 7 14 11 7 7 2 2 4 6 8 14 9 6 13 25 27 28 23 30 41 33 22 22 26 31 36 36 48 46 33 45 53 54 53 46 34 45 68 69 65 63 62
4 2 2 4 4 6 6 6 3 1 2 7 7 4 10 24 25 26 27 26 33 34 32 24 26 32 35 34 30 37 43 36 41 46 46 40 46 46 60 72 72 62 66 67
7 5 1 8 12 16 17 14 12 8 10 10 9 12 19 29 30 29 34 31 34 24 28 29 32 34 36 37 32 30 40 47 44 48 44 33 55 41 79 86 70 63 60 60
8 9 6 9 9 7 10 13 13 18 17 15 16 17 22 31 32 29 32 38 32 26 24 26 33 37 40 38 29 30 31 34 41 37 30 34 32 29 70 74 68 59 47 48
Wind_Direction_500mb
80 95 171 196 172 139 131 160 256 263 260 31 219 253 196 193 195 196 196 201 207 213 219 224 226 228 222 220 218 219 219 215 210 213 219 228 240 239 248 265 269 270 276 300
36 180 212 135 142 121 112 320 287 293 273 165 133 255 239 176 206 200 197 203 210 212 220 225 228 226 225 221 219 220 225 221 215 215 224 233 252 250 249 256 266 269 292 306
148 230 146 160 154 141 156 196 199 250 331 262 12 315 304 229 237 220 211 209 210 215 214 221 222 223 227 224 222 222 222 224 217 217 218 226 233 239 240 244 261 274 282 289
195 204 157 130 207 126 298 202 207 220 64 270 49 276 291 313 282 230 205 210 218 217 221 223 225 225 225 228 222 223 224 224 222 219 219 226 233 246 245 247 253 263 275 288
242 168 157 156 202 145 228 168 200 195 174 72 320 83 271 360 304 253 198 213 218 220 222 225 225 226 226 223 220 220 224 224 224 223 225 229 233 242 243 238 253 263 279 272
212 233 164 198 162 179 121 118 59 55 80 61 247 151 276 250 240 295 212 213 218 217 220 229 229 225 226 221 221 220 221 222 223 224 227 230 233 235 239 233 244 256 265 260
330 243 235 146 113 101 80 58 352 353 360 218 30 99 244 265 265 247 212 218 213 216 219 227 227 221 223 219 218 220 221 222 222 224 227 229 232 234 244 245 255 271 268 267
158 326 176 178 176 173 172 152 158 204 205 251 53 228 252 257 278 277 256 231 207 210 216 222 225 222 220 220 219 219 221 220 222 226 230 230 229 230 240 252 265 271 262 274
142 279 287 198 110 129 168 184 170 102 9 45 262 291 305 326 317 317 213 185 198 215 223 229 228 224 221 222 224 222 224 224 230 224 232 232 227 227 234 244 263 281 264 259
189 353 284 319 118 45 151 156 81 17 135 229 296 286 244 293 266 261 267 225 219 222 235 232 230 225 228 229 228 228 226 231 233 235 232 234 228 223 227 225 229 236 258 257
151 126 275 163 176 165 99 65 51 112 109 154 194 274 216 226 222 223 243 240 247 243 238 242 244 232 229 227 228 231 231 229 231 239 225 227 226 225 224 222 231 218 216 241
192 133 246 212 99 236 157 173 134 124 231 69 145 272 343 307 305 258 260 263 271 272 257 245 224 239 232 230 231 232 232 232 235 238 230 224 237 226 224 223 241 227 213 218
183 198 29 352 358 9 50 162 109 110 96 187 135 264 320 358 342 318 304 314 320 308 295 267 247 251 232 222 228 227 232 231 227 225 246 248 228 221 212 216 265 216 214 226
115 97 151 178 215 180 339 117 122 105 116 168 223 298 320 331 335 338 330 321 330 330 311 307 266 250 231 221 222 227 228 228 211 170 270 244 226 211 210 205 259 240 222 216
106 118 137 149 277 243 180 77 154 128 154 140 207 201 282 299 305 317 334 349 360 3 2 347 306 242 236 223 226 225 232 231 205 203 200 237 237 208 199 202 247 212 204 202
25 124 72 3 13 39 82 42 75 64 138 114 170 258 243 327 39 39 38 33 29 20 13 17 356 315 282 257 250 235 232 225 208 201 169 227 216 207 206 214 231 218 210 212
73 124 87 251 8 5 15 302 277 135 187 136 166 248 350 329 21 42 38 35 29 25 22 17 7 355 338 263 264 245 238 243 210 196 197 194 200 205 205 208 222 213 204 206
113 84 81 175 45 172 245 294 197 126 314 205 235 235 238 266 318 24 26 21 20 20 14 15 13 359 353 321 282 261 245 235 208 205 206 193 199 209 207 207 218 211 204 203
45 118 83 133 148 282 313 189 151 167 246 193 208 247 234 324 121 62 26 2 352 332 349 351 0 0 354 337 309 276 253 241 223 212 205 202 209 211 207 207 212 212 203 198
61 65 114 129 150 189 233 193 168 119 296 201 199 220 163 122 84 261 347 359 357 347 323 319 310 341 343 328 318 290 263 247 233 216 207 205 211 215 209 208 210 208 197 194
32 22 154 162 202 283 246 169 143 118 235 185 206 226 325 69 212 317 346 357 352 347 335 312 318 261 312 312 297 294 275 254 242 225 214 209 213 212 206 206 209 196 191 193
180 150 202 110 112 255 162 113 161 214 144 162 184 217 283 310 335 341 341 353 351 340 327 329 282 275 278 285 274 272 263 259 244 229 220 219 222 213 210 208 197 188 189 193
314 189 194 175 217 276 260 279 211 158 82 119 126 106 20 348 350 344 337 341 337 339 328 327 301 290 277 283 299 278 266 262 249 244 232 246 240 214 237 217 195 184 191 191
282 166 194 32 270 270 281 277 309 341 169 135 140 45 13 347 340 351 341 324 335 333 341 326 314 313 313 310 299 282 264 262 260 252 253 235 213 202 244 222 202 192 190 189
221 360 18 287 292 305 279 275 290 287 251 245 277 308 322 335 318 318 330 318 326 320 324 328 324 315 309 304 296 278 258 247 252 248 245 236 218 228 228 220 200 198 195 193
198 185 149 232 255 223 292 337 305 271 279 290 295 297 312 323 331 313 312 322 316 306 312 313 307 302 296 290 280 268 254 231 235 222 222 233 231 239 198 197 194 192 192 189
Wind_Speed_850mb
4 9 10 15 11 8 7 8 7 10 5 2 13 12 22 49 45 42 50 54 69 77 74 69 65 63 67 63 59 53 54 49 49 41 39 31 30 31 31 27 19 15 16 17
11 8 16 10 14 10 4 3 8 16 8 5 9 11 8 24 48 64 62 62 74 76 74 71 74 67 65 69 65 57 53 55 53 45 37 31 22 32 38 29 21 20 19 11
12 9 11 11 9 8 5 7 7 12 13 6 9 16 7 8 19 38 50 69 79 82 80 76 72 70 63 70 66 62 51 53 54 44 39 37 30 28 29 30 20 18 13 13
8 4 12 7 5 11 5 13 12 6 5 7 5 10 11 7 17 9 39 64 81 85 82 80 78 73 68 65 68 63 57 49 53 49 44 41 34 28 27 26 19 20 12 13
14 12 9 8 12 11 18 11 14 8 8 5 6 6 17 8 18 11 34 69 83 84 84 81 81 72 68 61 69 63 57 54 52 51 46 41 37 31 26 24 24 17 13 10
11 4 10 16 8 16 5 10 11 10 7 3 9 10 14 11 13 16 11 53 70 75 74 76 76 70 69 68 67 68 59 52 51 50 49 45 40 31 26 25 21 21 13 11
10 6 5 7 8 4 12 14 6 6 6 12 3 5 20 10 18 23 19 50 54 50 61 70 75 77 75 76 72 72 63 56 52 46 49 44 42 34 26 25 24 24 14 15
10 11 12 11 15 14 8 17 12 11 8 11 6 10 13 14 33 22 27 32 42 46 49 59 80 79 77 78 80 72 68 59 55 50 48 48 42 37 28 23 19 20 14 16
9 10 8 4 5 15 8 6 9 15 7 5 6 15 15 9 8 9 12 31 45 49 52 59 65 74 73 76 79 80 73 71 53 53 49 50 46 37 28 23 17 20 21 19
11 3 3 4 9 12 11 12 7 5 6 4 10 10 10 10 12 15 17 28 36 33 26 37 50 62 68 75 79 78 77 67 60 53 52 47 49 40 33 25 18 13 24 23
13 7 10 5 6 15 3 1 13 11 8 11 2 12 13 14 16 20 26 38 33 22 23 28 29 36 50 64 74 76 74 72 74 62 58 49 46 50 35 26 30 33 27 21
9 9 3 6 5 3 3 10 12 11 8 2 6 12 13 16 13 24 39 33 39 33 28 26 29 11 43 55 67 68 65 61 65 64 55 54 50 50 31 30 47 27 24 17
14 0 5 15 12 5 3 4 11 12 8 10 10 11 9 20 19 17 23 30 24 20 12 15 34 42 35 49 58 60 56 51 55 48 39 67 62 60 37 25 31 36 33 16
15 7 11 12 11 2 7 4 8 9 8 11 11 12 16 23 18 31 43 44 32 23 17 21 25 32 41 47 46 51 50 39 47 30 21 55 70 54 41 23 27 38 43 19
7 8 1 2 6 4 1 7 14 7 9 7 6 11 11 14 15 24 29 43 52 53 38 28 12 18 22 33 40 44 43 42 46 46 23 75 68 56 45 36 10 30 33 32
6 3 3 7 13 6 11 11 14 9 6 8 7 4 4 12 13 30 50 62 65 66 66 54 35 38 34 30 34 33 39 40 39 48 43 63 81 65 57 46 26 32 31 26
7 10 7 4 8 8 8 4 3 3 3 2 3 4 7 7 10 20 45 52 53 56 57 55 50 51 31 35 42 46 38 28 34 50 63 73 81 67 56 47 39 33 37 30
9 8 5 5 5 3 11 8 7 5 2 6 5 8 8 11 10 18 18 38 40 45 53 54 50 54 58 36 32 33 38 32 35 46 61 66 59 50 54 49 41 36 41 37
6 10 7 8 5 8 10 8 11 10 10 12 8 5 7 10 5 6 30 34 36 32 37 42 52 55 58 52 29 28 32 35 40 49 57 54 50 51 58 54 47 44 47 44
11 12 9 5 8 13 15 9 14 9 5 19 23 13 5 2 4 8 25 27 33 33 41 48 49 43 53 52 45 26 29 35 46 54 61 62 55 53 63 60 58 54 53 48
6 6 9 5 7 12 12 9 17 9 15 23 32 14 8 2 4 16 20 29 34 37 36 37 38 23 40 47 48 38 34 44 47 54 63 65 60 61 68 66 64 59 58 53
9 10 6 5 4 6 16 12 13 10 11 11 12 9 9 14 16 18 21 23 33 40 32 35 25 28 36 41 42 47 39 36 48 58 66 67 62 66 62 73 64 64 61 57
2 8 7 14 11 7 7 2 2 4 6 8 14 9 6 13 25 27 28 23 30 41 33 22 22 26 31 36 36 48 46 33 45 53 54 53 46 34 45 68 69 65 63 62
4 2 2 4 4 6 6 6 3 1 2 7 7 4 10 24 25 26 27 26 33 34 32 24 26 32 35 34 30 37 43 36 41 46 46 40 46 46 60 72 72 62 66 67
7 5 1 8 12 16 17 14 12 8 10 10 9 12 19 29 30 29 34 31 34 24 28 29 32 34 36 37 32 30 40 47 44 48 44 33 55 41 79 86 70 63 60 60
8 9 6 9 9 7 10 13 13 18 17 15 16 17 22 31 32 29 32 38 32 26 24 26 33 37 40 38 29 30 31 34 41 37 30 34 32 29 70 74 68 59 47 48
Wind_Direction_850mb
80 95 171 196 172 139 131 160 256 263 260 31 219 253 196 193 195 196 196 201 207 213 219 224 226 228 222 220 218 219 219 215 210 213 219 228 240 239 248 265 269 270 276 300
36 180 212 135 142 121 112 320 287 293 273 165 133 255 239 176 206 200 197 203 210 212 220 225 228 226 225 221 219 220 225 221 215 215 224 233 252 250 249 256 266 269 292 306
148 230 146 160 154 141 156 196 199 250 331 262 12 315 304 229 237 220 211 209 210 215 214 221 222 223 227 224 222 222 222 224 217 217 218 226 233 239 240 244 261 274 282 289
195 204 157 130 207 126 298 202 207 220 64 270 49 276 291 313 282 230 205 210 218 217 221 223 225 225 225 228 222 223 224 224 222 219 219 226 233 246 245 247 253 263 275 288
242 168 157 156 202 145 228 168 200 195 174 72 320 83 271 360 304 253 198 213 218 220 222 225 225 226 226 223 220 220 224 224 224 223 225 229 233 242 243 238 253 263 279 272
212 233 164 198 162 179 121 118 59 55 80 61 247 151 276 250 240 295 212 213 218 217 220 229 229 225 226 221 221 220 221 222 223 224 227 230 233 235 239 233 244 256 265 260
330 243 235 146 113 101 80 58 352 353 360 218 30 99 244 265 265 247 212 218 213 216 219 227 227 221 223 219 218 220 221 222 222 224 227 229 232 234 244 245 255 271 268 267
158 326 176 178 176 173 172 152 158 204 205 251 53 228 252 257 278 277 256 231 207 210 216 222 225 222 220 220 219 219 221 220 222 226 230 230 229 230 240 252 265 271 262 274
142 279 287 198 110 129 168 184 170 102 9 45 262 291 305 326 317 317 213 185 198 215 223 229 228 224 221 222 224 222 224 224 230 224 232 232 227 227 234 244 263 281 264 259
189 353 284 319 118 45 151 156 81 17 135 229 296 286 244 293 266 261 267 225 219 222 235 232 230 225 228 229 228 228 226 231 233 235 232 234 228 223 227 225 229 236 258 257
151 126 275 163 176 165 99 65 51 112 109 154 194 274 216 226 222 223 243 240 247 243 238 242 244 232 229 227 228 231 231 229 231 239 225 227 226 225 224 222 231 218 216 241
192 133 246 212 99 236 157 173 134 124 231 69 145 272 343 307 305 258 260 263 271 272 257 245 224 239 232 230 231 232 232 232 235 238 230 224 237 226 224 223 241 227 213 218
183 198 29 352 358 9 50 162 109 110 96 187 135 264 320 358 342 318 304 314 320 308 295 267 247 251 232 222 228 227 232 231 227 225 246 248 228 221 212 216 265 216 214 226
115 97 151 178 215 180 339 117 122 105 116 168 223 298 320 331 335 338 330 321 330 330 311 307 266 250 231 221 222 227 228 228 211 170 270 244 226 211 210 205 259 240 222 216
106 118 137 149 277 243 180 77 154 128 154 140 207 201 282 299 305 317 334 349 360 3 2 347 306 242 236 223 226 225 232 231 205 203 200 237 237 208 199 202 247 212 204 202
25 124 72 3 13 39 82 42 75 64 138 114 170 258 243 327 39 39 38 33 29 20 13 17 356 315 282 257 250 235 232 225 208 201 169 227 216 207 206 214 231 218 210 212
73 124 87 251 8 5 15 302 277 135 187 136 166 248 350 329 21 42 38 35 29 25 22 17 7 355 338 263 264 245 238 243 210 196 197 194 200 205 205 208 222 213 204 206
113 84 81 175 45 172 245 294 197 126 314 205 235 235 238 266 318 24 26 21 20 20 14 15 13 359 353 321 282 261 245 235 208 205 206 193 199 209 207 207 218 211 204 203
45 118 83 133 148 282 313 189 151 167 246 193 208 247 234 324 121 62 26 2 352 332 349 351 0 0 354 337 309 276 253 241 223 212 205 202 209 211 207 207 212 212 203 198
61 65 114 129 150 189 233 193 168 119 296 201 199 220 163 122 84 261 347 359 357 347 323 319 310 341 343 328 318 290 263 247 233 216 207 205 211 215 209 208 210 208 197 194
32 22 154 162 202 283 246 169 143 118 235 185 206 226 325 69 212 317 346 357 352 347 335 312 318 261 312 312 297 294 275 254 242 225 214 209 213 212 206 206 209 196 191 193
180 150 202 110 112 255 162 113 161 214 144 162 184 217 283 310 335 341 341 353 351 340 327 329 282 275 278 285 274 272 263 259 244 229 220 219 222 213 210 208 197 188 189 193
314 189 194 175 217 276 260 279 211 158 82 119 126 106 20 348 350 344 337 341 337 339 328 327 301 290 277 283 299 278 266 262 249 244 232 246 240 214 237 217 195 184 191 191
282 166 194 32 270 270 281 277 309 341 169 135 140 45 13 347 340 351 341 324 335 333 341 326 314 313 313 310 299 282 264 262 260 252 253 235 213 202 244 222 202 192 190 189
221 360 18 287 292 305 279 275 290 287 251 245 277 308 322 335 318 318 330 318 326 320 324 328 324 315 309 304 296 278 258 247 252 248 245 236 218 228 228 220 200 198 195 193
198 185 149 232 255 223 292 337 305 271 279 290 295 297 312 323 331 313 312 322 316 306 312 313 307 302 296 290 280 268 254 231 235 222 222 233 231 239 198 197 194 192 192 189